Flag for Israel Weather past 2 weeks in Kfar Saba, Israel

Now
90 °F

Passing clouds.


Feels Like: 103 °F
Forecast: 79 / 90 °F
Wind: 15 mph from West

Location: Dov Airport

Current Time: Aug 5, 2015 at 3:55:38 PM

Latest Report: Aug 5, 2015 at 2:50 PM


Visibility: N/A

Pressure: 29.74 "Hg

Humidity: 67%

Dew point: 77 °F

Location of Kfar SabaLocation

Historic Weather in Kfar Saba — Graph

°F

Kfar Saba temperature yesterday

Maximum temperature yesterday: 90 °F (at 1:50 PM)
Minimum temperature yesterday: 82 °F (at 11:50 PM)
Average temperature yesterday: 86 °F

Past Weeks' High & Low Weather Summary

 TemperatureHumidityPressure
High90 °F (Aug 2, 2:50 PM)94% (Aug 2, 5:50 AM)29.83 "Hg (Aug 2, 5:50 AM)
Low73 °F (Jul 30, 5:50 AM)52% (Jul 23, 2:50 PM)29.65 "Hg (Jul 21, 2:50 PM)
Average83 °F74%29.72 "Hg
* Reported Jul 21 2:50 PM — Aug 5 2:50 PM, Kfar Saba, Weather by CustomWeather, © 2015

Note: Actual official high and low records may vary slightly from our data, if they occured in-between our weather recording intervals... More about our weather records

Advertising

Kfar Saba weather history for previous 24 hours

 ConditionsComfort  
Time TempWeatherWind HumidityBarometerVisibility
2:50 PM
Wed, Aug 5
90 °FPassing clouds.15 mph67%29.74 "HgN/A
1:50 PM88 °FSunny.16 mph70%29.74 "Hg10 mi
12:50 PM88 °FSunny.15 mph75%29.74 "Hg10 mi
11:50 AM88 °FSunny.16 mph70%29.74 "Hg10 mi
10:50 AM88 °FSunny.14 mph70%29.77 "Hg10 mi
9:50 AM86 °FSunny.14 mph70%29.77 "Hg10 mi
8:50 AM84 °FPassing clouds.12 mph79%29.74 "HgN/A
7:50 AM82 °FScattered clouds.9 mph84%29.74 "HgN/A
6:50 AM81 °FPassing clouds.6 mph89%29.74 "HgN/A
5:50 AM81 °FPassing clouds.5 mph89%29.74 "HgN/A
4:50 AM82 °FPassing clouds.3 mph84%29.74 "HgN/A
4:00 AM82 °FPassing clouds.2 mph84%29.74 "HgN/A
11:50 PM
Tue, Aug 4
82 °FPassing clouds.3 mph84%29.74 "Hg6 mi
10:50 PM84 °FPassing clouds.2 mph79%29.74 "HgN/A
9:50 PM84 °FPassing clouds.6 mph84%29.74 "HgN/A
8:50 PM84 °FPassing clouds.3 mph84%29.71 "HgN/A
7:50 PM84 °FScattered clouds.5 mph79%29.71 "HgN/A
6:50 PM86 °FScattered clouds.6 mph79%29.71 "HgN/A
5:50 PM86 °FScattered clouds.12 mph79%29.71 "HgN/A
4:50 PM86 °FScattered clouds.12 mph79%29.71 "HgN/A
3:50 PM88 °FPassing clouds.12 mph75%29.71 "HgN/A
Weather by CustomWeather, © 2015

See weather overviewHow to use our weather pages